Regional Weather Roundup
Issued by NWS

Home | Current Version | Previous Version | Graphics & Text | Print | Product List | Glossary On
Versions: 1 2 3 4 5 6 7 8 9 10 11 12 13 14 15 16 17 18 19 20 21 22 23 24 25 26 27 28 29 30 31 32 33 34 35 36 37 38 39 40 41 42 43 44 45 46 47 48 49 50
000
ASUS43 KLMK 290202
RWRKY
KENTUCKY REGIONAL WEATHER ROUNDUP
NATIONAL WEATHER SERVICE LOUISVILLE KY
1000 PM EDT TUE MAR 28 2017

NOTE "FAIR" INDICATES FEW OR NO CLOUDS BELOW 12,000 FEET
WITH NO SIGNIFICANT WEATHER AND/OR OBSTRUCTIONS TO VISIBILITY.

KYZ001>023-026-027-061>063-070>075-290300-
WESTERN AND SOUTH CENTRAL KENTUCKY

CITY           SKY/WX    TMP DP  RH WIND       PRES   REMARKS
PADUCAH        CLOUDY    59  51  75 NE7       30.05R
HENDERSON      MOCLDY    54  48  82 CALM      30.07R
OWENSBORO      PTCLDY   N/A N/A N/A MISG      30.08R
HOPKINSVILLE   CLEAR     55  55 100 NE7       30.05R
BOWLING GREEN  CLOUDY    60  55  83 CALM      30.07R
GLASGOW        NOT AVBL
$$

KYZ024-025-028>034-038-045-046-053-290300-
NORTH CENTRAL KENTUCKY

CITY           SKY/WX    TMP DP  RH WIND       PRES   REMARKS
LOUISVILLE/SDF MOCLDY    58  47  66 N7        30.10R
LOUISVILLE/LOU PTCLDY    57  48  72 N6        30.11R
FORT KNOX      CLOUDY    57  49  75 N7        30.08R
$$

KYZ035>037-039>044-047>052-055>060-089>105-290300-
NORTHEAST KENTUCKY

CITY           SKY/WX    TMP DP  RH WIND       PRES   REMARKS
LEXINGTON      CLOUDY    58  52  80 N9        30.10R
COVINGTON      CLOUDY    54  48  80 N10       30.12R
FRANKFORT      CLOUDY    59  50  72 N6        30.09R
$$

KYZ054-064>069-076>088-106>120-290300-
SOUTHEAST KENTUCKY

CITY           SKY/WX    TMP DP  RH WIND       PRES   REMARKS
JACKSON        CLOUDY    58  53  84 NW5       30.08R
LONDON         CLOUDY    60  51  72 N6        30.08R
SOMERSET       NOT AVBL
MIDDLESBORO    CLOUDY    58  51  77 CALM      30.07R
MONTICELLO     CLOUDY    58  55  90 N12       30.10R
$$





USA.gov is the U.S. government's official web portal to all federal, state and local government web resources and services.